Location: ????????
(55.3155°N, 39.2900°E)
Time: 19:41:05
(UTC+00:00)

Cosmos 1092 Rocket - Pass Details

Date: 14 April 2024
Orbit: 955 x 993 km, 83.0° (Epoch: 17 May)

Event Time Altitude Azimuth Distance (km) Brightness Sun altitude
Exits shadow 00:41:44 - 187° (S) 2,980 6.1 -13.1°
Reaches altitude 10° 00:42:32 10° 187° (S) 2,681 5.9 -13.1°
Maximum altitude 00:48:40 86° 99° (E) 967 4.0 -12.4°
Drops below altitude 10° 00:54:52 10° 12° (NNE) 2,705 7.1 -11.7°
Sets 00:57:22 0° 12° (NNE) 3,659 7.8 -11.4°
